Wind_Speed
5 6 6 6 7 6 6 7 6 5 5 5 5 5 5 4 4 4 3 3 3 3 3 4 3 2 2 2 2 2 2 2 2 1 1 1 2 2 2 2 1 2 2 1 1 0 1 1 2
5 6 6 7 6 7 7 7 7 7 6 6 6 6 5 5 5 4 4 4 4 4 4 4 4 3 3 3 2 3 3 3 3 2 1 1 2 2 2 2 2 2 2 2 1 1 1 1 2
6 6 7 7 7 8 8 7 7 7 7 7 7 6 6 5 5 5 5 5 5 4 5 5 4 4 4 3 3 3 3 3 3 3 2 2 3 3 3 2 3 2 2 2 2 2 2 1 2
7 7 7 7 8 8 8 7 7 7 7 7 7 6 6 6 5 6 6 6 5 5 5 5 5 5 5 4 3 3 3 3 3 3 3 3 3 3 3 3 3 3 2 2 3 3 3 2 3
7 7 7 8 8 8 8 8 8 8 8 8 7 6 6 6 5 6 6 6 5 5 5 6 5 5 4 4 4 4 4 3 4 4 4 4 4 4 4 3 3 3 3 2 3 4 4 4 3
8 8 8 8 8 8 8 8 8 8 9 8 7 8 6 6 6 6 6 6 6 6 6 6 5 5 5 5 4 4 4 5 4 4 4 4 4 4 4 3 3 3 3 2 3 4 5 4 2
9 8 8 9 9 8 8 8 9 8 8 8 8 8 7 7 7 6 7 7 7 7 7 7 6 6 5 5 4 4 4 4 5 5 5 5 4 4 4 4 3 3 3 3 3 4 4 4 3
8 9 9 9 9 9 9 8 9 8 8 8 8 8 8 8 8 7 7 7 7 8 7 7 7 6 5 5 5 5 5 5 6 6 6 6 5 5 4 4 3 3 3 3 3 4 4 4 4
10 9 10 10 9 9 9 9 9 9 9 9 8 9 9 9 8 8 8 8 7 7 7 7 7 7 6 6 6 6 6 6 6 6 6 6 5 4 4 3 3 3 2 3 3 4 4 4 4
10 9 10 10 10 10 9 9 8 8 9 9 9 9 9 9 8 8 8 8 8 7 7 7 7 7 6 6 6 6 7 7 6 6 6 6 5 4 4 3 3 3 3 3 4 4 4 4 4
10 10 10 10 10 9 10 9 9 9 9 9 9 9 9 9 9 8 9 8 8 8 7 8 7 7 7 7 7 7 7 6 6 6 7 6 6 5 4 3 3 3 4 4 4 4 4 4 4
10 10 10 10 9 9 10 9 10 10 9 9 9 9 10 10 11 10 10 9 9 8 8 8 8 8 8 7 7 7 7 7 6 6 5 5 5 4 4 3 3 4 4 4 4 5 5 4 4
10 10 10 10 10 9 10 10 10 10 10 10 9 9 10 10 11 10 10 10 9 9 9 8 8 8 9 8 8 8 8 7 6 6 5 6 6 6 5 4 4 4 5 5 5 5 5 5 5
10 10 10 10 10 10 10 10 10 10 10 10 10 10 10 10 10 10 10 10 10 10 10 9 9 8 8 8 8 8 7 7 6 6 5 6 6 6 5 5 5 5 5 5 6 5 5 5 5
9 9 9 9 10 10 10 10 10 10 10 10 10 10 10 10 10 10 11 11 11 11 10 10 9 9 9 9 8 8 8 7 7 6 6 6 6 5 5 5 4 4 5 5 5 5 5 5 5
8 9 9 9 9 10 11 10 10 10 10 10 10 10 11 10 10 10 11 11 10 10 10 10 9 9 9 9 8 8 7 7 7 7 6 6 6 5 5 5 4 5 5 5 5 5 4 4 4
8 9 9 9 9 10 11 10 10 10 11 10 11 11 11 10 10 10 10 10 10 10 10 10 10 9 9 9 8 8 7 7 7 7 7 6 6 6 6 5 5 5 5 6 5 4 4 4 4
8 10 10 10 10 11 11 11 10 10 11 12 11 11 11 11 11 10 10 10 10 10 10 9 9 9 9 9 8 8 7 7 7 7 6 6 6 6 6 6 5 5 5 5 5 5 5 5 5
9 10 11 10 10 10 11 11 10 10 11 11 12 12 11 11 11 11 10 10 10 10 9 9 9 9 9 9 8 7 7 6 7 6 5 5 5 5 6 5 5 5 5 5 5 5 5 5 5
10 11 12 11 11 11 11 12 12 11 11 11 11 12 12 12 11 11 11 10 10 10 10 9 10 9 9 9 8 7 7 7 7 6 6 5 5 6 6 5 5 5 5 5 5 5 5 5 5
11 11 11 11 12 12 12 12 12 12 12 12 12 12 12 12 11 11 11 10 10 10 10 9 10 10 9 9 8 8 8 7 7 7 7 6 6 6 6 5 5 5 5 5 5 5 5 5 6
13 11 10 10 12 11 12 12 12 12 12 12 12 12 12 11 11 11 11 11 11 11 11 10 10 10 10 9 9 8 8 8 8 8 7 7 7 6 6 5 5 5 5 6 6 6 6 6 6
12 11 10 11 12 12 12 13 13 13 12 12 13 13 13 12 11 11 11 11 11 11 11 11 11 11 10 10 10 9 10 10 9 8 8 8 8 7 7 6 6 6 6 6 6 7 7 7 7
12 12 12 11 12 12 11 13 14 13 13 12 13 13 13 13 12 12 12 11 12 12 12 11 11 11 11 11 11 11 11 11 10 9 9 9 8 8 8 7 7 7 7 7 7 7 7 7 7
13 12 12 11 11 13 12 14 15 13 13 13 13 13 14 13 13 13 12 12 12 12 12 12 12 12 12 12 12 12 12 11 11 10 10 9 9 9 9 9 8 8 7 7 7 7 7 7 7
14 13 12 11 11 14 14 15 15 14 14 14 13 13 13 13 13 13 13 13 13 13 13 13 13 13 13 13 13 12 12 12 12 11 11 11 10 10 10 9 9 9 9 9 8 8 8 8 9
14 15 14 14 13 13 14 15 15 14 15 14 14 13 13 13 13 13 13 13 13 13 13 13 14 14 14 14 14 13 13 13 12 12 12 12 12 11 11 10 10 10 10 10 9 10 10 9 9
15 14 14 14 14 13 14 15 14 14 15 14 14 14 14 14 13 13 14 14 14 13 14 13 14 15 15 15 15 14 13 13 13 13 13 13 12 12 11 11 11 11 11 11 11 11 10 10 10
16 16 15 15 16 15 14 15 15 15 16 15 15 15 14 14 14 14 14 14 14 14 14 14 15 15 15 15 16 16 15 14 14 14 14 13 13 13 13 13 12 12 12 12 12 11 11 12 12
17 17 17 17 16 16 17 17 16 16 16 16 16 15 15 15 15 15 15 14 14 15 15 14 15 15 15 15 16 16 16 16 15 15 15 14 14 14 14 14 13 13 13 13 13 12 13 13 13
Wind_Direction
206 203 206 207 201 207 221 226 224 223 222 229 236 235 236 237 225 226 234 237 242 240 244 241 247 256 264 286 285 285 291 327 347 325 321 344 348 347 353 339 336 341 345 345 337 282 237 255 271
213 210 206 209 213 218 225 227 227 228 229 235 241 241 245 244 232 231 239 244 252 254 253 249 257 261 269 288 291 294 297 317 327 332 327 321 325 325 327 314 310 324 330 332 341 340 273 301 301
216 214 213 213 222 224 226 224 226 232 236 239 242 244 245 242 234 236 247 250 252 257 258 258 261 261 268 282 285 289 293 310 318 322 313 314 321 327 319 317 324 318 313 318 330 321 314 340 333
219 219 218 220 227 227 227 227 229 237 240 240 243 243 241 241 237 241 250 256 255 258 260 265 261 265 277 280 282 297 298 302 313 322 322 316 322 319 321 329 330 315 304 319 329 331 321 325 330
221 220 223 227 233 235 232 232 235 242 242 239 241 237 234 238 242 245 251 255 254 259 262 261 257 267 275 272 278 303 305 311 323 325 328 325 328 323 322 331 328 321 311 322 325 330 326 325 323
222 222 228 231 237 237 233 233 236 240 240 241 242 240 240 243 244 247 250 251 257 267 271 268 263 265 276 277 281 296 300 306 314 314 316 321 317 317 317 323 328 324 317 313 319 327 325 329 318
223 224 228 232 235 236 234 232 237 238 244 244 243 245 245 247 248 252 252 252 259 266 269 268 267 271 279 278 279 297 303 304 304 310 312 312 310 313 312 308 315 318 318 320 331 332 331 336 328
224 226 229 234 233 237 239 236 238 239 244 244 244 246 251 251 251 257 254 255 261 267 271 267 266 269 274 283 285 294 298 303 303 305 306 308 308 305 299 295 303 308 317 322 322 326 334 334 328
226 228 232 234 235 239 240 240 242 242 242 243 245 245 249 253 254 259 260 261 265 269 273 273 270 270 275 280 285 290 294 299 302 304 306 308 308 302 293 288 289 290 309 318 323 319 317 326 326
227 230 235 235 235 240 240 239 243 244 240 243 246 245 246 249 252 259 260 263 265 265 271 274 273 269 274 279 283 289 294 299 301 304 309 310 309 303 297 280 278 285 304 320 323 318 319 325 324
230 232 238 236 233 238 241 242 245 245 243 244 245 244 246 249 254 256 260 263 263 262 269 273 273 273 279 281 285 292 295 298 300 302 306 310 310 307 296 289 288 306 311 313 319 321 316 320 322
234 234 237 236 237 239 240 244 248 247 247 248 248 247 251 253 258 258 257 260 262 264 269 275 275 276 280 283 284 291 295 297 299 299 308 312 312 309 293 286 293 299 298 306 314 319 314 313 312
235 237 239 239 241 242 242 246 250 248 248 250 252 255 257 259 260 258 257 260 266 268 272 276 281 280 281 284 288 291 291 294 299 301 307 310 312 309 302 294 288 289 292 301 302 306 311 308 309
237 239 242 244 245 246 248 249 248 248 248 252 253 257 259 262 263 262 261 262 266 270 271 277 279 282 282 286 288 288 286 290 296 300 303 302 304 305 300 287 291 295 298 298 300 298 303 300 303
240 239 241 246 248 250 252 249 249 248 250 253 255 260 264 265 266 266 265 264 267 268 269 272 276 277 280 284 287 286 285 287 290 293 296 298 301 302 303 295 292 298 304 306 306 300 302 302 309
241 241 245 251 252 254 255 254 251 251 252 256 259 262 262 265 268 263 261 261 262 265 267 269 271 274 279 281 282 284 283 283 284 284 286 290 298 298 301 296 288 287 292 297 301 299 298 308 318
244 246 250 251 256 259 258 259 257 253 253 256 260 262 260 263 266 259 259 261 261 261 264 266 268 272 276 277 279 284 283 284 283 280 279 280 285 290 294 295 291 287 287 290 293 296 302 310 316
250 252 255 254 257 264 262 258 258 255 256 261 261 262 262 264 263 262 264 265 262 261 264 266 268 269 271 272 276 276 277 281 283 279 279 280 282 284 286 288 289 287 285 285 289 292 297 306 311
253 251 252 255 259 262 261 259 257 259 261 262 261 261 263 267 266 262 264 266 263 263 266 266 264 266 269 268 269 268 268 277 281 279 281 284 286 288 291 283 280 282 281 283 286 291 301 305 307
252 252 254 253 258 263 262 263 265 262 261 261 262 261 264 266 265 261 262 263 265 264 266 266 263 264 267 267 263 261 264 269 273 272 275 277 284 291 289 287 285 284 284 285 289 291 299 303 304
250 255 255 257 260 260 263 263 265 264 262 261 262 261 264 267 265 263 260 261 262 262 262 259 262 266 265 261 259 262 264 263 262 267 273 274 278 287 287 286 284 284 284 287 291 294 290 296 300
250 254 252 254 257 257 261 263 263 267 266 264 262 263 265 265 264 262 262 261 259 259 259 259 262 264 261 258 259 260 261 259 262 267 271 271 274 282 283 283 280 279 283 285 286 292 293 296 299
250 253 253 254 256 259 261 261 262 267 269 267 265 265 265 264 263 263 263 263 262 259 257 258 260 261 259 260 260 259 259 260 262 266 266 270 272 275 279 281 280 276 278 282 288 291 293 293 296
246 246 248 251 250 255 258 261 265 268 270 269 266 266 265 264 263 263 262 263 261 259 258 257 259 260 259 261 262 260 260 260 262 265 265 268 271 274 276 279 277 277 276 278 284 288 290 290 293
242 244 245 247 250 256 259 262 267 271 275 273 270 266 265 266 266 264 264 262 260 261 260 259 261 262 260 260 260 260 260 260 262 265 266 267 269 273 275 279 277 272 273 277 280 281 283 289 292
243 242 241 244 251 262 263 265 269 272 273 273 271 269 265 266 266 266 264 262 261 262 260 260 260 260 259 258 259 258 259 261 263 265 265 266 268 271 275 276 275 276 275 280 281 278 279 284 290
242 241 239 240 246 256 261 267 270 271 269 270 271 270 268 268 266 263 263 262 262 261 261 261 261 261 258 256 256 257 258 260 262 264 265 266 267 269 274 275 276 277 277 278 281 280 280 285 287
247 245 241 237 241 246 254 259 266 274 270 266 267 269 269 268 266 263 261 260 262 265 263 263 261 259 257 254 255 254 256 259 260 262 265 267 267 268 272 274 275 277 277 278 279 281 280 284 285
246 244 243 242 243 240 246 255 260 268 270 270 267 265 267 266 265 263 262 262 262 263 265 264 263 259 256 253 254 255 255 256 259 261 263 266 267 267 269 272 273 274 276 276 276 278 276 278 281
248 246 241 240 244 241 247 255 261 264 268 270 270 267 266 266 265 264 264 263 263 263 263 264 263 260 257 256 256 256 257 257 259 261 263 265 267 268 270 272 271 272 273 274 275 277 278 279 279
Height
5870 5871 5873 5874 5876 5876 5877 5877 5878 5879 5880 5880 5881 5881 5882 5883 5884 5887 5885 5884 5884 5885 5885 5885 5885 5885 5885 5885 5885 5885 5885 5884 5884 5884 5883 5883 5883 5882 5882 5882 5881 5881 5881 5881 5881 5880 5880 5880 5880
5870 5871 5873 5874 5875 5875 5876 5876 5877 5878 5879 5880 5880 5881 5882 5882 5883 5884 5883 5884 5884 5884 5885 5885 5885 5885 5885 5885 5885 5885 5885 5884 5884 5883 5883 5883 5883 5882 5882 5881 5881 5881 5881 5881 5881 5880 5880 5880 5880
5869 5871 5873 5873 5873 5874 5875 5876 5877 5877 5878 5879 5880 5881 5882 5882 5883 5883 5883 5883 5884 5884 5884 5884 5885 5885 5885 5885 5885 5885 5884 5884 5884 5883 5883 5882 5882 5882 5882 5881 5881 5880 5880 5880 5880 5880 5880 5879 5879
5869 5870 5872 5873 5873 5873 5874 5875 5876 5877 5878 5879 5880 5881 5881 5881 5882 5882 5883 5883 5883 5884 5884 5884 5884 5884 5885 5885 5885 5884 5884 5884 5883 5883 5883 5882 5882 5882 5881 5881 5881 5880 5880 5880 5880 5880 5879 5879 5879
5868 5869 5871 5871 5871 5872 5873 5874 5875 5876 5877 5878 5879 5880 5880 5881 5881 5882 5882 5883 5883 5883 5883 5884 5884 5884 5884 5884 5884 5884 5884 5883 5883 5883 5882 5882 5882 5882 5881 5881 5880 5880 5880 5880 5879 5879 5879 5878 5878
5867 5868 5870 5870 5870 5871 5872 5873 5874 5875 5875 5877 5878 5879 5880 5880 5881 5881 5881 5882 5882 5883 5883 5883 5883 5883 5884 5884 5884 5883 5883 5883 5883 5883 5882 5882 5881 5881 5881 5881 5880 5880 5879 5879 5879 5879 5879 5878 5878
5867 5867 5868 5869 5869 5870 5871 5872 5873 5874 5875 5876 5878 5878 5879 5879 5880 5880 5881 5881 5882 5882 5882 5882 5882 5883 5883 5883 5883 5883 5883 5883 5882 5882 5882 5881 5881 5881 5880 5880 5880 5880 5879 5879 5879 5878 5878 5878 5877
5865 5867 5867 5867 5868 5870 5871 5871 5872 5873 5874 5875 5877 5878 5878 5879 5879 5879 5880 5881 5881 5881 5881 5881 5882 5882 5882 5882 5882 5882 5882 5882 5882 5881 5881 5881 5880 5880 5880 5880 5880 5879 5879 5879 5878 5878 5878 5877 5877
5863 5866 5865 5866 5867 5869 5869 5870 5871 5872 5873 5874 5875 5876 5877 5877 5878 5879 5879 5880 5880 5880 5880 5880 5881 5881 5881 5881 5881 5881 5881 5881 5881 5880 5880 5880 5879 5879 5879 5879 5879 5879 5879 5878 5878 5878 5877 5877 5876
5862 5863 5864 5865 5866 5867 5868 5869 5871 5871 5872 5873 5874 5875 5876 5876 5877 5878 5878 5879 5879 5879 5879 5880 5880 5880 5880 5881 5881 5881 5880 5880 5880 5879 5879 5879 5879 5879 5878 5878 5878 5878 5878 5878 5877 5877 5877 5876 5876
5860 5862 5863 5863 5865 5866 5867 5868 5869 5870 5871 5872 5873 5874 5875 5875 5876 5876 5877 5877 5878 5878 5878 5879 5879 5879 5879 5879 5880 5880 5879 5879 5879 5878 5878 5878 5878 5878 5878 5877 5877 5877 5877 5877 5877 5876 5876 5876 5875
5859 5860 5861 5862 5863 5865 5866 5867 5868 5869 5870 5871 5871 5872 5873 5874 5875 5875 5876 5876 5877 5877 5877 5877 5877 5878 5878 5878 5878 5878 5878 5878 5878 5878 5877 5877 5877 5877 5877 5877 5876 5877 5877 5877 5876 5876 5876 5875 5875
5858 5859 5860 5861 5862 5863 5864 5866 5866 5867 5868 5869 5870 5871 5871 5872 5873 5874 5874 5875 5875 5875 5876 5876 5876 5876 5877 5877 5877 5877 5877 5877 5877 5877 5877 5877 5876 5876 5876 5876 5876 5876 5876 5876 5875 5875 5875 5875 5874
5857 5858 5859 5860 5861 5862 5863 5864 5865 5866 5867 5868 5869 5869 5870 5871 5871 5872 5872 5873 5873 5874 5874 5875 5875 5875 5875 5876 5876 5876 5876 5876 5876 5876 5876 5876 5876 5875 5875 5875 5875 5875 5875 5875 5875 5874 5874 5874 5873
5855 5857 5858 5859 5860 5861 5862 5863 5864 5864 5865 5866 5867 5868 5869 5869 5870 5870 5870 5871 5872 5872 5873 5873 5874 5874 5874 5874 5874 5875 5875 5875 5875 5875 5875 5875 5875 5874 5874 5874 5874 5874 5874 5874 5874 5874 5873 5873 5873
5854 5856 5857 5858 5858 5859 5862 5861 5862 5863 5864 5865 5865 5866 5867 5867 5868 5868 5869 5869 5870 5870 5871 5872 5872 5872 5873 5873 5873 5873 5873 5874 5874 5874 5874 5874 5874 5874 5874 5874 5873 5873 5873 5873 5873 5873 5873 5872 5872
5853 5854 5855 5857 5857 5857 5859 5859 5860 5861 5862 5863 5864 5864 5865 5865 5866 5866 5867 5867 5868 5868 5869 5870 5870 5871 5871 5872 5872 5872 5872 5873 5873 5873 5873 5873 5873 5873 5873 5873 5872 5872 5872 5872 5872 5872 5872 5871 5871
5851 5852 5853 5855 5855 5856 5856 5857 5859 5859 5860 5861 5862 5862 5863 5863 5864 5864 5865 5865 5866 5867 5867 5868 5869 5869 5870 5870 5871 5871 5871 5872 5872 5872 5872 5872 5872 5872 5872 5872 5871 5871 5871 5871 5871 5871 5871 5870 5870
5850 5851 5852 5853 5853 5854 5855 5855 5857 5858 5858 5859 5859 5860 5860 5861 5862 5863 5863 5864 5864 5865 5866 5866 5867 5867 5868 5869 5869 5870 5870 5870 5871 5871 5871 5871 5871 5871 5871 5871 5870 5870 5870 5870 5870 5870 5870 5870 5869
5848 5849 5850 5851 5851 5852 5853 5854 5855 5856 5856 5857 5857 5858 5858 5859 5860 5861 5861 5862 5862 5863 5864 5864 5865 5866 5866 5867 5867 5868 5869 5869 5869 5870 5870 5870 5870 5870 5870 5870 5869 5869 5869 5869 5869 5869 5869 5869 5869
5846 5847 5848 5849 5850 5850 5851 5852 5853 5853 5854 5855 5855 5856 5857 5857 5858 5859 5859 5860 5860 5861 5862 5863 5863 5864 5864 5865 5866 5866 5867 5868 5868 5868 5869 5869 5869 5868 5868 5869 5868 5868 5868 5868 5868 5868 5868 5868 5868
5844 5845 5846 5847 5848 5848 5849 5850 5850 5851 5852 5853 5853 5854 5854 5855 5855 5856 5857 5858 5859 5859 5860 5860 5861 5862 5862 5863 5864 5865 5865 5866 5867 5867 5867 5867 5867 5867 5867 5867 5867 5867 5867 5867 5867 5867 5867 5867 5867
5842 5843 5844 5845 5845 5846 5847 5848 5849 5849 5849 5850 5851 5851 5852 5853 5853 5854 5855 5856 5856 5857 5858 5858 5859 5860 5860 5861 5862 5863 5864 5864 5865 5865 5865 5866 5866 5866 5866 5866 5866 5866 5866 5866 5866 5866 5866 5866 5866
5839 5841 5841 5842 5843 5844 5845 5846 5846 5847 5847 5848 5848 5849 5849 5850 5851 5851 5852 5853 5854 5855 5855 5856 5856 5857 5858 5859 5860 5861 5861 5862 5863 5863 5864 5864 5864 5864 5864 5864 5864 5864 5864 5864 5864 5864 5864 5864 5864
5837 5839 5839 5840 5840 5842 5843 5843 5844 5845 5845 5845 5846 5846 5847 5847 5848 5849 5850 5850 5851 5852 5852 5853 5854 5855 5855 5856 5857 5858 5859 5860 5860 5861 5861 5862 5862 5862 5862 5863 5863 5862 5863 5863 5863 5863 5863 5863 5862
5834 5836 5837 5838 5839 5840 5840 5840 5842 5842 5842 5843 5843 5844 5844 5845 5846 5846 5847 5848 5848 5849 5849 5850 5851 5852 5852 5853 5854 5855 5856 5857 5858 5858 5859 5860 5860 5860 5860 5860 5860 5860 5860 5860 5860 5861 5861 5861 5860
5830 5832 5834 5835 5836 5837 5838 5838 5839 5839 5840 5840 5840 5841 5842 5842 5843 5843 5844 5845 5845 5846 5847 5847 5848 5849 5849 5850 5851 5852 5853 5854 5855 5856 5856 5857 5857 5858 5858 5858 5858 5858 5858 5858 5858 5858 5858 5858 5858
5827 5829 5830 5831 5833 5834 5835 5835 5836 5836 5836 5837 5837 5838 5839 5839 5840 5840 5841 5842 5842 5843 5843 5844 5845 5845 5846 5846 5848 5849 5850 5851 5852 5853 5853 5854 5854 5855 5855 5855 5855 5855 5855 5856 5856 5856 5856 5856 5856
5824 5825 5826 5828 5829 5831 5832 5834 5833 5833 5833 5834 5834 5835 5836 5836 5837 5837 5838 5839 5839 5840 5840 5840 5841 5841 5842 5843 5844 5845 5846 5848 5849 5849 5850 5851 5851 5852 5852 5852 5852 5853 5853 5853 5853 5853 5853 5853 5853
5819 5821 5823 5824 5825 5827 5828 5831 5829 5830 5830 5831 5831 5832 5832 5833 5834 5834 5835 5835 5836 5836 5836 5837 5837 5838 5838 5839 5840 5841 5842 5844 5845 5846 5846 5847 5848 5848 5849 5849 5850 5850 5850 5850 5850 5850 5850 5850 5850